TimeMST,TemperatureF,Dew PointF,Humidity,Sea Level PressureIn,VisibilityMPH,Wind Direction,Wind SpeedMPH,Gust SpeedMPH,PrecipitationIn,Events,Conditions,WindDirDegrees,DateUTC
12:53 AM,23.0,17.1,78,30.01,10.0,NE,20.7,-,N/A,,Clear,50,2014-02-09 07:53:00
1:18 AM,21.9,19.0,89,29.98,9.0,NE,16.1,-,N/A,,Scattered Clouds,50,2014-02-09 08:18:00
1:27 AM,21.9,19.0,89,29.98,6.0,ENE,18.4,-,N/A,,Mostly Cloudy,60,2014-02-09 08:27:00
1:53 AM,21.0,18.0,88,30.02,4.0,East,18.4,-,N/A,,Overcast,80,2014-02-09 08:53:00
2:09 AM,21.0,19.0,92,29.96,2.0,East,17.3,-,N/A,,Overcast,80,2014-02-09 09:09:00
2:16 AM,21.0,19.0,92,29.97,2.5,East,18.4,-,N/A,,Overcast,80,2014-02-09 09:16:00
2:24 AM,21.0,19.0,92,29.98,3.0,ENE,16.1,-,N/A,,Overcast,60,2014-02-09 09:24:00
2:51 AM,19.4,17.6,93,30.00,4.0,ENE,19.6,-,N/A,,Overcast,60,2014-02-09 09:51:00
2:53 AM,19.9,17.1,89,30.06,5.0,ENE,18.4,-,N/A,,Overcast,60,2014-02-09 09:53:00
3:53 AM,19.0,16.0,88,30.06,4.0,ENE,16.1,-,N/A,,Overcast,70,2014-02-09 10:53:00
4:44 AM,19.0,17.1,92,30.03,3.0,ENE,16.1,-,N/A,,Overcast,60,2014-02-09 11:44:00
4:53 AM,19.0,16.0,88,30.09,3.0,ENE,16.1,-,N/A,,Overcast,60,2014-02-09 11:53:00
5:03 AM,18.0,16.0,92,30.02,2.0,ENE,16.1,-,N/A,,Overcast,70,2014-02-09 12:03:00
5:12 AM,18.0,16.0,92,30.02,1.8,ENE,15.0,-,N/A,,Overcast,60,2014-02-09 12:12:00
5:21 AM,18.0,16.0,92,30.03,2.0,ENE,13.8,-,N/A,,Overcast,70,2014-02-09 12:21:00
5:53 AM,18.0,16.0,92,30.12,2.0,ENE,13.8,-,N/A,,Overcast,60,2014-02-09 12:53:00
6:01 AM,18.0,16.0,92,30.05,1.5,ENE,10.4,-,N/A,,Overcast,60,2014-02-09 13:01:00
6:49 AM,17.6,15.8,93,30.06,1.0,ENE,9.2,-,N/A,,Overcast,60,2014-02-09 13:49:00
6:53 AM,18.0,16.0,92,30.12,1.0,ENE,10.4,-,N/A,,Overcast,60,2014-02-09 13:53:00
7:04 AM,18.0,16.0,92,30.05,0.5,ENE,8.1,-,N/A,Fog,Light Freezing Fog,70,2014-02-09 14:04:00
7:53 AM,19.0,16.0,88,30.11,0.2,NE,6.9,-,N/A,Fog,Light Freezing Fog,50,2014-02-09 14:53:00
8:53 AM,19.0,17.1,92,30.12,0.2,East,6.9,-,N/A,Fog,Light Freezing Fog,90,2014-02-09 15:53:00
9:53 AM,19.9,17.1,89,30.13,1.2,ESE,8.1,-,N/A,,Overcast,120,2014-02-09 16:53:00
10:00 AM,19.9,17.1,89,30.08,3.0,SE,6.9,-,N/A,,Overcast,130,2014-02-09 17:00:00
10:30 AM,19.9,17.1,89,30.08,5.0,SE,6.9,-,N/A,,Overcast,140,2014-02-09 17:30:00
10:53 AM,19.9,17.1,89,30.13,2.0,ESE,9.2,-,N/A,,Overcast,120,2014-02-09 17:53:00
11:18 AM,19.9,17.1,89,30.06,4.0,ESE,5.8,-,N/A,,Overcast,120,2014-02-09 18:18:00
11:29 AM,19.9,17.1,89,30.05,6.0,ESE,9.2,-,N/A,,Overcast,120,2014-02-09 18:29:00
11:53 AM,19.9,17.1,89,30.14,5.0,ESE,9.2,-,N/A,,Overcast,120,2014-02-09 18:53:00
12:53 PM,21.0,18.0,88,30.12,6.0,East,6.9,-,N/A,,Overcast,100,2014-02-09 19:53:00
1:38 PM,21.0,18.0,88,30.00,4.0,ESE,9.2,-,N/A,,Overcast,120,2014-02-09 20:38:00
1:53 PM,21.0,18.0,88,30.10,3.0,ESE,10.4,-,N/A,,Overcast,120,2014-02-09 20:53:00
2:05 PM,19.9,18.0,92,29.99,1.8,ESE,10.4,-,N/A,,Overcast,110,2014-02-09 21:05:00
2:22 PM,21.0,18.0,88,29.99,0.8,East,8.1,-,N/A,,Overcast,100,2014-02-09 21:22:00
2:53 PM,19.9,18.0,92,30.09,0.5,East,10.4,-,N/A,Fog,Light Freezing Fog,90,2014-02-09 21:53:00
3:53 PM,19.9,18.0,92,30.12,0.2,ENE,16.1,-,N/A,Fog,Light Freezing Fog,60,2014-02-09 22:53:00
4:53 PM,19.0,17.1,92,30.15,0.2,ENE,16.1,-,N/A,Fog,Light Freezing Fog,70,2014-02-09 23:53:00
5:53 PM,19.0,16.0,88,30.18,0.2,East,18.4,-,N/A,Fog,Light Freezing Fog,80,2014-02-10 00:53:00
6:53 PM,19.0,17.1,92,30.22,0.2,East,10.4,-,N/A,Fog,Light Freezing Fog,100,2014-02-10 01:53:00
7:40 PM,18.0,16.0,92,30.12,1.2,ESE,11.5,-,N/A,,Overcast,120,2014-02-10 02:40:00
7:51 PM,17.6,15.8,93,30.12,2.0,ESE,12.7,-,N/A,,Overcast,120,2014-02-10 02:51:00
7:53 PM,18.0,16.0,92,30.25,2.0,ESE,11.5,-,N/A,,Overcast,120,2014-02-10 02:53:00
8:13 PM,18.0,16.0,92,30.12,4.0,ESE,12.7,-,N/A,,Overcast,120,2014-02-10 03:13:00
8:53 PM,18.0,15.1,88,30.29,5.0,East,8.1,-,N/A,,Overcast,90,2014-02-10 03:53:00
9:06 PM,18.0,15.1,88,30.17,5.0,East,8.1,-,N/A,,Overcast,100,2014-02-10 04:06:00
9:29 PM,18.0,15.1,88,30.15,5.0,ESE,9.2,-,N/A,,Overcast,120,2014-02-10 04:29:00
9:53 PM,18.0,16.0,92,30.30,4.0,ESE,6.9,-,N/A,,Overcast,120,2014-02-10 04:53:00
10:53 PM,18.0,15.1,88,30.29,3.0,East,4.6,-,N/A,,Overcast,80,2014-02-10 05:53:00
11:12 PM,18.0,15.1,88,30.16,2.5,East,4.6,-,N/A,,Overcast,80,2014-02-10 06:12:00
11:53 PM,18.0,15.1,88,30.28,3.0,ENE,4.6,-,N/A,,Overcast,70,2014-02-10 06:53:00